Back to catalog

Z-Sat

Z-SAT

AliveAmateur RadioSSO
NORAD 49399·PAYLOAD·🇯🇵 Japan

Launched Nov 9, 2021 from Uchinoura Space Center

Loading…

Next Passes (next 24 hours)

TLE

FreshSource: Space-Track

Epoch: Sep 14, 2026, 13:11 UTC

1 49399U 21102E   26257.54963263  .00003408  00000-0  16637-3 0  9991
2 49399  97.3264 290.1664 0014867 298.6870  61.2870 15.18850715267001

Track Z-Sat in real time with AllMySat

Download on the App Store